Regional Weather Roundup
Issued by NWS

Home | Current Version | Previous Version | Graphics & Text | Print | Product List | Glossary Off
Versions: 1 2 3 4 5 6 7 8 9 10 11 12 13 14 15 16 17 18 19 20 21 22 23 24 25 26 27 28 29 30 31 32 33 34 35 36 37 38 39 40 41 42 43 44 45 46 47 48 49 50

218
ASUS43 KFSD 222002
RWRSD

WEATHER ROUNDUP FOR SOUTH DAKOTA
NATIONAL WEATHER SERVICE SIOUX FALLS SD
300 PM CDT WED MAR 22 2017

NOTE: "FAIR" INDICATES FEW OR NO CLOUDS BELOW 12,000 FEET WITH NO
SIGNIFICANT WEATHER AND/OR OBSTRUCTIONS TO VISIBILITY.


SDZ001>005-009-010-012>017-222100-
NORTHWEST AND NORTH CENTRAL SOUTH DAKOTA

CITY           SKY/WX    TMP DP  RH WIND       PRES   REMARKS
BUFFALO          N/A     53  37  54 S8        29.75F
FAITH            N/A     56  38  50 SE22      29.82F
MOBRIDGE       PTSUNNY   45  30  55 S24G35    29.94F
$$

SDZ012>016-024>037-041>051-057-063-072>074-222100-
SOUTHWEST AND SOUTH CENTRAL SOUTH DAKOTA

CITY           SKY/WX    TMP DP  RH WIND       PRES   REMARKS
RAPID CTY ARPT CLOUDY    64  39  39 S21       29.76F
PIERRE         SUNNY     50  31  48 S28G39    29.96F
CUSTER         CLOUDY    57  31  37 SW12G23   29.86F
ELLSWORTH AFB  CLOUDY    54  44  69 N15       29.77S
PHILIP         SUNNY     66  38  35 S21G32    29.83F
PINE RIDGE     CLOUDY    60  39  45 S16G31    29.87F
SPEARFISH      FAIR      55  39  54 NE6       29.82F
WINNER         FAIR      50  31  48 S24G36    30.01F
$$

SDZ004>011-016>023-039-040-222100-
NORTHEAST SOUTH DAKOTA

CITY           SKY/WX    TMP DP  RH WIND       PRES   REMARKS
ABERDEEN       CLOUDY    34  24  67 SE26G33   30.13F WCI  21
WATERTOWN      CLOUDY    32  18  56 SE22G32   30.22F WCI  19
BROOKINGS      CLOUDY    31  21  66 SE20G29   30.25  WCI  19
SISSETON         N/A     31  24  75 S23       30.24F WCI  18
$$

SDZ017-020-022-023-036>040-048>070-222100-
SOUTHEAST SOUTH DAKOTA

CITY           SKY/WX    TMP DP  RH WIND       PRES   REMARKS
SIOUX FALLS    CLOUDY    36  22  56 SE18G24   30.27F
HURON          CLOUDY    34  25  69 SE18G31   30.17F WCI  23
CHAMBERLAIN    CLOUDY    44  31  59 SE30G37   30.06F
MITCHELL       CLOUDY    38  27  64 SE23      30.19F
YANKTON        CLOUDY    39  21  48 SE21      30.23F
$$

ABBREVIATIONS USED IN REMARKS
   TC - TEMPERATURE IN CELSIUS
  WCI - WIND CHILL INDEX
   HX - HEAT INDEX
  VSB - VISIBILITY





USA.gov is the U.S. government's official web portal to all federal, state and local government web resources and services.